metlocid,date_time,avg_par,std_par,min_par,max_par,n_par,avg_swradin,std_swradin,min_swradin,max_swradin,n_swradin,avg_swradout,std_swradout,min_swradout,max_swradout,n_swradout,avg_uva,std_uva,min_uva,max_uva,n_uva,avg_uvb,std_uvb,min_uvb,max_uvb,n_uvb,avg_netrad,std_netrad,min_netrad,max_netrad,n_netrad,n_comments
BRHM,12/1/94,,,,,0,220.2115389,118.0854841,49.8,406,26,,,,,0,19.02115378,9.605704342,5.15,37.88,26,0.951961556,1.009000817,0,3.17,26,99.81115396,67.47585568,12.27,220.8,26,0
BRHM,1/1/95,,,,,0,287.0223121,191.1137297,14.3,739.3,744,,,,,0,22.68872308,14.02790407,2.18,56.32,744,1.370810484,1.42849028,0,4.83,744,115.4917876,105.5952744,-59.77,393.9,744,0
BRHM,2/1/95,,,,,0,171.0574406,168.7449374,0,553.8,672,,,,,0,12.97571428,12.25562724,0,42.09,672,0.578409226,0.876340783,0,3.3,672,46.16017852,86.2276585,-76,274.3,672,0
BRHM,3/1/95,,,,,0,61.87620967,90.78118452,0,416.2,744,,,,,0,4.915456987,6.872946924,0,30.68,744,0.071049731,0.236762669,0,1.63,744,-13.51622313,30.11425783,-158.2,102,744,0
BRHM,4/1/95,,,,,0,2.645138892,7.816634923,0,72.6,720,,,,,0,0.299861111,1.004256994,0,6.51,720,0,0,0,0,720,-21.02133332,20.08547484,-79.9,10.63,720,0
BRHM,5/1/95,,,,,0,0,0,0,0,744,,,,,0,0,0,0,0,744,0,0,0,0,744,-23.69775541,20.93798869,-79.2,10.45,744,0
BRHM,6/1/95,,,,,0,0,0,0,0,720,,,,,0,0,0,0,0,720,0,0,0,0,720,-30.95704168,23.00433341,-77.1,6.33,720,0
BRHM,7/1/95,,,,,0,0,0,0,0,744,,,,,0,0,0,0,0,744,0,0,0,0,744,-29.8819489,20.11186512,-79.8,14.87,744,0
BRHM,8/1/95,,,,,0,0.767117119,3.86399433,0,38.8,222,,,,,0,0.208648647,1.128983429,0,12.01,222,0.090225225,0.555740456,0,5.87,222,-62.87621599,39.45853053,-205,71.4,222,30
BRHM,11/1/95,,,,,0,342.0739635,215.0703583,17.4,839.2,699,,,,,0,22.73969957,13.37920197,2.26,52.99,699,1.310932763,1.325070052,0,4.14,699,115.8402145,108.2671419,-65.17,403.6,699,0
BRHM,12/1/95,,,,,0,352.183535,230.1965912,21.2,1038.7,2976,,,,,0,24.30881718,14.33002881,2.4,58.76,2976,1.630996304,1.604118723,0,5.22,2976,130.3175168,114.4041214,-131.7,509.9,2976,0
BRHM,1/1/96,,,,,0,303.5072243,216.6985395,5.8,931.1,2976,,,,,0,21.32000673,13.68185139,0.57,57.87,2976,1.342793682,1.415844072,0,4.99,2976,111.9621707,108.7459294,-64.96,459,2976,253
BRHM,2/1/96,,,,,0,200.6907685,187.2276593,0,699.5,2784,,,,,0,12.9021408,11.55635594,0,41.37,2784,0.617571838,0.882003807,0,3.17,2784,43.8842565,88.2372077,-188.4,326.2,2784,1322
BRHM,3/1/96,,,,,0,61.22093416,95.97067418,0,453.3,2976,,,,,0,3.859354841,5.772292798,0,25.38,2976,0.047069892,0.183290968,0,1.27,2976,-12.33437836,38.69572133,-185.4,153.3,2976,2494
BRHM,4/1/96,,,,,0,5.367306653,11.84445971,0,99.7,1823,,,,,0,0.482742733,1.113967628,0,6.3,1823,0.006039495,0.03663842,0,0.52,1823,-31.15076247,26.40151536,-137.2,31.12,1823,1720
BRHM,11/1/96,622.5436349,383.7265372,58.61,1511.94,1667,305.8227953,193.942438,15.4,755,1667,65.09528499,40.8121865,3.06,167.2,1667,,,,,0,,,,,0,,,,,0,0
BRHM,12/1/96,673.171764,400.0887355,98.51,1790.73,2976,327.3727731,201.7065346,25.1,871,2975,66.6290524,41.5845141,4.78,268.8,2976,,,,,0,,,,,0,,,,,0,1
BRHM,1/1/97,588.9707357,398.1730699,53.65,1778.76,2948,286.6437054,200.5352078,16.6,858,2947,63.03868725,44.733439,3,272.8,2948,,,,,0,,,,,0,,,,,0,1
BRHM,2/1/97,362.3121653,322.6416775,0,1128.3,2688,184.6352305,167.4274738,0.2,567.6,2688,39.79999996,35.1472319,0,125.6,2688,,,,,0,,,,,0,,,,,0,0
BRHM,3/1/97,124.5345096,172.4805018,0,733.9,2947,64.56026468,96.07883001,0,386.6,2947,26.17054624,39.51910624,0,192.5,2947,,,,,0,,,,,0,,,,,0,651
BRHM,4/1/97,9.675034734,21.73879462,0,146.4,2880,3.915833338,9.268686969,0,84,2880,1.837256949,4.324934887,0,39.9,2880,,,,,0,,,,,0,,,,,0,1537
BRHM,5/1/97,0.023622312,0.148978994,0,1.1,2976,0.014348119,0.075631428,0,0.9,2976,0.006182796,0.035200443,0,0.4,2976,,,,,0,,,,,0,,,,,0,2271
BRHM,6/1/97,0.000104167,0.00559017,0,0.3,2880,0.001770833,0.015151989,0,0.3,2880,0.000590278,0.007661575,0,0.1,2880,,,,,0,,,,,0,,,,,0,2702
BRHM,7/1/97,0.000840054,0.018037309,0,0.5,2976,0.001747312,0.015239423,0,0.2,2976,0.000336022,0.006342175,0,0.2,2976,,,,,0,,,,,0,,,,,0,2289
BRHM,8/1/97,3.746572594,11.82545025,0,83.1,2976,1.698588713,5.284729057,0,35.5,2976,0.955107527,2.934473303,0,19.5,2976,,,,,0,,,,,0,,,,,0,1610
BRHM,9/1/97,66.70850685,111.535902,0,649.6,2786,32.11748031,58.77899782,0,343.4,2786,17.38144294,30.8636063,0,199.2,2786,,,,,0,,,,,0,,,,,0,921
BRHM,10/1/97,256.5794021,267.2268384,0,1052,2976,131.1571571,140.7847933,0,588.4,2976,37.36848123,40.89444824,0,209.7,2976,,,,,0,,,,,0,,,,,0,186
BRHM,11/1/97,480.9560656,353.1810888,13.8,1493.1,2877,238.4142511,180.7914372,5.2,772,2877,49.16294754,37.36203335,1.2,154.9,2877,,,,,0,,,,,0,,,,,0,0
BRHM,12/1/97,624.1822247,404.9413621,43.1,1960.1,2976,308.8419778,207.196173,17.3,895,2973,66.1144489,45.08810587,3.5,233.7,2976,,,,,0,,,,,0,,,,,0,3
BRHM,1/1/98,586.3481008,393.9143553,46.6,1636.8,2975,291.2647395,201.8911433,19.5,845,2975,62.38403363,44.35339591,3.7,365.8,2975,,,,,0,,,,,0,,,,,0,0
BRHM,2/1/98,310.4789805,291.5619073,0.2,1286.2,2688,153.6284226,148.9166045,0.2,653.1,2688,63.38370534,74.26400038,0,385.9,2688,,,,,0,,,,,0,,,,,0,0
BRHM,3/1/98,125.5893482,175.5140981,0,876.6,2976,65.15332667,95.69374331,0,493.7,2976,25.87170703,34.96362966,0,159.5,2976,,,,,0,,,,,0,,,,,0,0
BRHM,4/1/98,8.217395837,16.52553717,0,139.4,2880,3.039895837,6.596245177,0,80.3,2880,3.030104166,8.262837535,0,115.9,2880,,,,,0,,,,,0,,,,,0,0
BRHM,5/1/98,0.022883065,0.167805074,0,2.2,2976,0.015759409,0.088176454,0,1,2976,0.00702285,0.043937399,0,0.6,2976,,,,,0,,,,,0,,,,,0,0
BRHM,6/1/98,3.47E-05,0.00186339,0,0.1,2880,0.000972222,0.010497817,0,0.2,2880,0.0003125,0.005582398,0,0.1,2880,,,,,0,,,,,0,,,,,0,0
BRHM,7/1/98,0.001478495,0.035043765,0,1.1,2976,0.00218414,0.01735253,0,0.2,2976,0.000672043,0.008956589,0,0.2,2976,,,,,0,,,,,0,,,,,0,0
BRHM,8/1/98,2.437500004,8.417958699,0,65,2976,1.136122313,3.821566714,0,33,2976,0.664650539,1.940548419,0,13.8,2976,,,,,0,,,,,0,,,,,0,0
BRHM,9/1/98,52.72708335,91.91509298,0,668.7,2880,24.37625003,45.0419932,0,334.8,2880,20.54347223,36.37727021,0,217.6,2880,,,,,0,,,,,0,,,,,0,0
BRHM,10/1/98,275.5269824,279.2818394,0,1029.1,2976,141.0566195,145.6371555,0,532.1,2976,51.48172039,54.32367161,0,351.9,2976,,,,,0,,,,,0,,,,,0,0
BRHM,11/1/98,578.5252781,384.2845125,36.3,1380.3,2880,294.3076041,199.0761735,11,710,2880,65.36881943,44.33504057,2.6,182,2880,,,,,0,,,,,0,,,,,0,0
BRHM,12/1/98,723.3416668,415.454407,82.7,1741.1,2976,367.9139161,215.0820971,23.6,896,2975,76.78040989,44.14736539,4.5,184.2,2976,,,,,0,,,,,0,,,,,0,1
BRHM,1/1/99,561.8417614,378.8766825,26,1801,2974,279.7107973,195.7499572,11.2,871,2973,59.88870213,41.15769654,2.3,198.6,2974,,,,,0,,,,,0,,,,,0,4
BRHM,2/1/99,377.8917413,337.7169877,0,1468.4,2688,197.3375743,180.9164555,0.2,790,2688,57.2334821,57.36300275,0.2,394.9,2688,,,,,0,,,,,0,,,,,0,212
BRHM,3/1/99,131.2415996,182.2470783,0,947.1,2976,71.13756715,105.8453038,0,591.4,2976,46.72436158,71.19626806,0,407.4,2976,,,,,0,,,,,0,,,,,0,1091
BRHM,4/1/99,12.22135416,28.21114513,0,183.8,2880,5.516458334,13.65853615,0,91.4,2880,4.425902785,10.3346349,0,65.3,2880,,,,,0,,,,,0,,,,,0,1764
BRHM,5/1/99,0.053629033,0.308022048,0,3.3,2976,0.023286291,0.128907837,0,1.4,2976,0.026780914,0.109261174,0,1.2,2976,,,,,0,,,,,0,,,,,0,2287
BRHM,6/1/99,0.000347222,0.012635549,0,0.6,2880,0.000868056,0.009998782,0,0.2,2880,0.006388889,0.024459737,0,0.1,2880,,,,,0,,,,,0,,,,,0,2031
BRHM,7/1/99,0.000604839,0.019737021,0,0.8,2976,0.000772849,0.010178614,0,0.2,2976,0.00483871,0.021926712,0,0.2,2976,,,,,0,,,,,0,,,,,0,2296
BRHM,8/1/99,2.645698927,9.551267852,0,66.2,2976,1.177116935,3.945168368,0,30.4,2976,0.818850806,2.292002347,0,15.4,2976,,,,,0,,,,,0,,,,,0,2214
BRHM,9/1/99,57.78864592,96.72491112,0,538.2,2880,26.94968747,48.55396229,0,299.4,2880,19.08336808,35.46754988,0,197.5,2880,,,,,0,,,,,0,,,,,0,1279
BRHM,10/1/99,293.7615259,291.2743348,0,1090,2976,155.2492943,157.1314468,0,570.6,2976,55.16350811,58.18678107,0,343.4,2976,,,,,0,,,,,0,,,,,0,241
BRHM,11/1/99,537.7180205,384.3529986,14.2,1585,2880,271.4906946,200.46783,3.9,826,2880,60.51934031,43.35066915,1,172.3,2880,,,,,0,,,,,0,,,,,0,0
BRHM,12/1/99,698.846371,413.4527,36.8,1859.3,2976,353.2551669,215.7837656,13.6,881,2971,76.82718413,46.1155864,3,202.8,2976,,,,,0,,,,,0,,,,,0,5
BRHM,1/1/00,637.6585344,406.4941556,56,1634.3,2976,324.9839719,214.3064772,16.8,858,2976,71.08854168,45.41229002,3.6,204.9,2976,,,,,0,,,,,0,,,,,0,0
BRHM,2/1/00,376.6275504,332.0106935,0,1172.7,2784,197.2219108,177.8643777,0.2,648.5,2784,49.92647273,48.72639499,0,381.2,2784,,,,,0,,,,,0,,,,,0,106
BRHM,3/1/00,115.0780578,165.1802758,0,935.9,2976,60.62617606,93.98827828,0,527.8,2976,22.26683466,31.70534611,0,160.9,2976,,,,,0,,,,,0,,,,,0,1038
BRHM,4/1/00,11.01822918,25.4253719,0,180.5,2880,4.932395839,12.06318016,0,93.9,2880,3.578090274,9.17511713,0,74,2880,,,,,0,,,,,0,,,,,0,1747
BRHM,5/1/00,0.027721774,0.222002313,0,2.4,2976,0.017540323,0.102283829,0,1.2,2976,0.020262097,0.056948144,0,0.5,2976,,,,,0,,,,,0,,,,,0,2348
BRHM,6/1/00,3.47E-05,0.00186339,0,0.1,2880,0.001006944,0.011595233,0,0.2,2880,0.020694445,0.042198242,0,0.2,2880,,,,,0,,,,,0,,,,,0,2528
BRHM,7/1/00,0.001915323,0.035070554,0,1.1,2976,0.00171371,0.01513258,0,0.2,2976,0.016465054,0.040721281,0,0.2,2976,,,,,0,,,,,0,,,,,0,2587
BRHM,8/1/00,3.288978498,10.14527185,0,72.3,2976,1.467708334,4.214285707,0,39.9,2976,0.505981183,1.218313135,0,9.4,2976,,,,,0,,,,,0,,,,,0,1983
BRHM,9/1/00,60.35725694,106.3532457,0,561.9,2880,29.96468751,59.71957658,0,311.7,2880,10.36784723,18.2428316,0,103.9,2880,,,,,0,,,,,0,,,,,0,1277
BRHM,10/1/00,293.0549396,287.9927849,0,1109.3,2976,159.8092067,158.9227736,0,598.7,2976,39.93508063,39.20521879,0,155.4,2976,,,,,0,,,,,0,,,,,0,143
BRHM,11/1/00,509.8980888,362.2097981,27.3,1339.3,2878,251.7180619,186.2312557,10.7,666.5,2879,58.33934026,44.23751203,2.3,214.6,2880,,,,,0,,,,,0,,,,,0,3
BRHM,12/1/00,697.1087365,414.889352,81,1634.5,2976,339.0632395,212.6573631,23.2,838,2976,73.05463709,43.93087046,4.6,230.5,2976,,,,,0,,,,,0,,,,,0,0
BRHM,1/1/01,607.1717446,394.7322986,56.7,1661.5,1490,298.4467067,201.903012,15.2,848,2976,61.88413981,40.9444975,3,169.5,2976,,,,,0,,,,,0,,,,,0,0
BRHM,2/1/01,,,,,0,186.7737349,166.4714236,0.2,630.1,2688,39.86101188,35.06725175,0,129.6,2688,,,,,0,,,,,0,,,,,0,0
BRHM,3/1/01,,,,,0,63.81502007,93.89867498,0,361.1,2976,15.5749664,22.07923917,0,115.9,2976,,,,,0,,,,,0,,,,,0,731
BRHM,4/1/01,,,,,0,3.370937501,7.918560761,0,73.7,2880,2.654513889,6.371633629,0,53,2880,,,,,0,,,,,0,,,,,0,1927
BRHM,5/1/01,,,,,0,0.017170699,0.096654245,0,1.5,2976,0.006854839,0.046018489,0,0.6,2976,,,,,0,,,,,0,,,,,0,2467
BRHM,6/1/01,,,,,0,0.002743056,0.020486696,0,0.3,2880,0.0003125,0.006173332,0,0.2,2880,,,,,0,,,,,0,,,,,0,2474
BRHM,7/1/01,,,,,0,0.002755376,0.019893886,0,0.2,2976,0.000100806,0.003173936,0,0.1,2976,,,,,0,,,,,0,,,,,0,2360
BRHM,8/1/01,,,,,0,1.062802419,3.694875493,0,41,2976,1.007795698,3.189928426,0,26.1,2976,,,,,0,,,,,0,,,,,0,1891
BRHM,9/1/01,,,,,0,28.30899304,53.8822814,0,321.3,2880,13.09993058,23.70108976,0,132.5,2880,,,,,0,,,,,0,,,,,0,1024
BRHM,10/1/01,,,,,0,154.829906,152.5821079,0,622.7,2976,43.37043009,41.68540196,0,165.6,2976,,,,,0,,,,,0,,,,,0,202
BRHM,11/1/01,,,,,0,288.5302777,199.8690547,11.2,831,2880,64.0082639,44.32213549,2.6,264,2880,,,,,0,,,,,0,,,,,0,0
BRHM,12/1/01,,,,,0,347.7306425,216.9242392,22.2,870,2973,72.87204851,44.64376706,4.5,176.5,2973,,,,,0,,,,,0,,,,,0,3
BRHM,1/1/02,487.3794728,356.2042216,41.2,1602.7,1291,290.1970094,204.580938,15.3,827,2976,62.88010749,46.22809764,3.2,336.4,2976,,,,,0,,,,,0,,,,,0,18
BRHM,2/1/02,348.161049,310.0517516,0,1267.6,2688,171.7978423,158.4509675,0.2,676.2,2688,37.32172621,34.141633,0,134.8,2688,,,,,0,,,,,0,,,,,0,1
BRHM,3/1/02,117.9437836,161.3743867,0,706.3,2976,58.65739245,86.50756493,0,370.4,2976,20.13282931,32.44827953,0,215.6,2976,,,,,0,,,,,0,,,,,0,827
BRHM,4/1/02,10.54527778,22.99195683,0,174.3,2880,3.777881935,9.139820059,0,99.1,2880,2.065486114,5.085982126,0,59.1,2880,,,,,0,,,,,0,,,,,0,1710
BRHM,5/1/02,0.018716398,0.151615942,0,2,2976,0.011357527,0.07198533,0,1,2976,0.005006721,0.032875625,0,0.4,2976,,,,,0,,,,,0,,,,,0,2357
BRHM,6/1/02,0.000520833,0.010693539,0,0.3,2880,0.0009375,0.012742524,0,0.3,2880,3.47E-05,0.00186339,0,0.1,2880,,,,,0,,,,,0,,,,,0,2728
BRHM,7/1/02,0.000302419,0.011735572,0,0.6,2976,0.00141129,0.014599097,0,0.2,2976,0,0,0,0,2976,,,,,0,,,,,0,,,,,0,2651
BRHM,8/1/02,2.544489254,8.31478284,0,69.4,2976,1.094690863,3.815539051,0,42.6,2976,0.467036291,1.587456745,0,16.6,2976,,,,,0,,,,,0,,,,,0,2165
BRHM,9/1/02,47.12326386,82.65919104,0,484.1,2880,21.09843755,38.89773608,0,212.9,2880,18.03621526,34.55091106,0,167.7,2880,,,,,0,,,,,0,,,,,0,1824
BRHM,10/1/02,261.5562837,267.5124976,0,991.3,2976,130.9643143,136.5681386,0,505,2976,83.60826618,84.55517909,0,364.4,2976,,,,,0,,,,,0,,,,,0,669
BRHM,11/1/02,538.3296533,374.6362386,19.9,1475.8,2880,271.1631468,197.0494739,7.1,783,2879,100.1701979,80.39330601,3.2,465.3,2879,,,,,0,,,,,0,,,,,0,1
BRHM,12/1/02,663.9971437,405.0376144,45.6,1784.6,2976,334.5087027,213.5190585,18.6,933,2976,68.59267473,42.99303329,3.5,249.8,2976,,,,,0,,,,,0,,,,,0,2
BRHM,1/1/03,544.5743279,377.2800763,47,1820.7,2976,262.7264783,195.6357595,17.9,961,2976,100.5636762,103.4781013,3,549,2976,,,,,0,,,,,0,,,,,0,26
BRHM,2/1/03,391.662165,343.8381412,0,1290.4,2688,195.7492189,177.4845536,0.2,665.2,2688,119.1170759,112.8026128,0,446.1,2688,,,,,0,,,,,0,,,,,0,2
BRHM,3/1/03,115.8598456,155.4011374,0,752.9,2976,59.6659274,84.7967343,0,402.5,2976,44.69371639,64.64702343,0,301.3,2976,,,,,0,,,,,0,,,,,0,1246
BRHM,4/1/03,9.359652779,20.55550516,0,133.2,2880,4.102395827,9.833071369,0,78.4,2880,3.529166667,8.47336693,0,76.7,2880,,,,,0,,,,,0,,,,,0,2051
BRHM,5/1/03,0.014180107,0.108962407,0,2.1,2976,0.008837366,0.059571517,0,0.9,2976,0.013608871,0.091704386,0,1.4,2976,,,,,0,,,,,0,,,,,0,2490
BRHM,6/1/03,6.94E-05,0.00372678,0,0.2,2880,0.001076389,0.013525261,0,0.3,2880,0.000104167,0.004166088,0,0.2,2880,,,,,0,,,,,0,,,,,0,2646
BRHM,7/1/03,0,0,0,0,2976,0.000974462,0.011982818,0,0.2,2976,0.000201613,0.004486358,0,0.1,2976,,,,,0,,,,,0,,,,,0,2398
BRHM,8/1/03,2.54358199,8.273380974,0,57.7,2976,1.021975808,3.218366551,0,28.3,2976,0.432258065,1.230189332,0,8.2,2976,,,,,0,,,,,0,,,,,0,2218
BRHM,9/1/03,55.18072915,92.47065438,0,553,2880,25.15927086,46.4497428,0,308.1,2880,13.8892361,27.47405566,0,181.6,2880,,,,,0,,,,,0,,,,,0,1095
BRHM,10/1/03,278.1058467,283.9662292,0,1107.1,2976,146.2380377,152.9625288,0,581.7,2976,41.21243286,43.59703044,0,213.2,2976,,,,,0,,,,,0,,,,,0,172
BRHM,11/1/03,525.9189932,363.2726874,25.9,1491.6,2880,264.8426389,189.4266763,9.4,777,2880,55.79909723,39.7035882,1.6,192,2880,,,,,0,,,,,0,,,,,0,0
BRHM,12/1/03,668.9267812,399.598085,61.1,1594.6,2976,331.6749997,207.4793359,24.5,835,2976,79.59156585,54.39713917,4.1,479.1,2976,,,,,0,,,,,0,,,,,0,13
BRHM,1/1/04,628.6244624,403.8787186,54.1,1591.2,2976,316.4749664,211.1946484,15.5,839,2976,62.86310486,41.95322649,2.5,164.1,2976,,,,,0,,,,,0,,,,,0,0
BRHM,2/1/04,373.8975211,327.7143936,0,1249.6,2784,191.4827229,172.2093528,0.2,688.6,2784,47.82535921,47.14610491,0,279.8,2784,,,,,0,,,,,0,,,,,0,28
BRHM,3/1/04,129.4052756,180.3273227,0,997.4,2976,67.82557116,100.5194519,0,580,2976,31.02936831,43.98113465,0,247.5,2976,,,,,0,,,,,0,,,,,0,935
BRHM,4/1/04,10.06690971,23.81023676,0,163.1,2880,4.209236124,10.8642832,0,85.8,2880,2.586493059,6.668453752,0,70.5,2880,,,,,0,,,,,0,,,,,0,1754
BRHM,5/1/04,0.031384409,0.212538636,0,2.4,2976,0.020598119,0.120541267,0,1.3,2976,0.010719086,0.065409022,0,0.7,2976,,,,,0,,,,,0,,,,,0,2671
BRHM,6/1/04,0,0,0,0,2880,0.001076389,0.011285293,0,0.2,2880,0.000104167,0.003226365,0,0.1,2880,,,,,0,,,,,0,,,,,0,2563
BRHM,7/1/04,0.001444892,0.027827723,0,0.7,2976,0.001444892,0.014480204,0,0.3,2976,6.72E-05,0.002591944,0,0.1,2976,,,,,0,,,,,0,,,,,0,2850
BRHM,8/1/04,2.487701612,7.522183876,0,59.5,2976,1.128763444,3.246361536,0,29.7,2976,0.460517473,2.119431562,0,31.2,2976,,,,,0,,,,,0,,,,,0,2052
BRHM,9/1/04,64.654618,109.2223906,0,580.9,2880,32.81548611,59.31739877,0,338.3,2880,15.57975693,26.3030222,0,125.9,2880,,,,,0,,,,,0,,,,,0,1233
BRHM,10/1/04,286.1809475,284.3124945,0,1018.9,2976,153.9944893,154.940431,0,534.4,2976,42.14008738,43.64929627,0,215.5,2976,,,,,0,,,,,0,,,,,0,178
BRHM,11/1/04,557.4933677,371.2119472,35,1372.9,2880,287.4693752,195.8781668,11,718,2880,60.58593756,40.81203204,2.1,147.8,2880,,,,,0,,,,,0,,,,,0,0
BRHM,12/1/04,640.8317748,418.8021427,87.3,1986.8,2974,300.4712367,203.1395697,21.6,976,2976,77.47288308,64.78076311,4.2,531.3,2976,,,,,0,,,,,0,,,,,0,29
BRHM,1/1/05,580.5222183,384.632963,27.4,1571.4,2975,267.6984539,183.9453529,10.4,745,2975,74.45690751,62.00441018,1.4,418.6,2975,,,,,0,,,,,0,,,,,0,0
BRHM,2/1/05,368.8794266,325.8469911,0,1272.8,2688,175.4620908,157.3617576,0.2,621.6,2688,64.64363838,73.03754816,0.2,496.3,2688,,,,,0,,,,,0,,,,,0,278
BRHM,3/1/05,131.315356,179.8211306,0,1037.7,2976,60.13289644,87.60702288,0,529.2,2976,32.57251346,48.29196851,0,294.6,2976,,,,,0,,,,,0,,,,,0,583
BRHM,4/1/05,11.64298613,26.41291131,0,169.8,2880,4.818125001,11.54421998,0,81.1,2880,2.391944442,5.419881347,0,35.3,2880,,,,,0,,,,,0,,,,,0,1441
BRHM,5/1/05,0.026075269,0.231630362,0,3.9,2976,0.020262097,0.118176902,0,1.4,2976,0.011256721,0.079267445,0,1,2976,,,,,0,,,,,0,,,,,0,2170
BRHM,6/1/05,0,0,0,0,2880,0.001736111,0.016578876,0,0.2,2880,6.94E-05,0.002634774,0,0.1,2880,,,,,0,,,,,0,,,,,0,2117
BRHM,7/1/05,3.36E-05,0.001833089,0,0.1,2976,0.002889785,0.021810089,0,0.2,2976,0.000100806,0.003173936,0,0.1,2976,,,,,0,,,,,0,,,,,0,2249
BRHM,8/1/05,2.828057799,9.098389704,0,69.7,2976,1.186155915,3.489875376,0,29.6,2976,0.518313172,1.640523787,0,15.6,2976,,,,,0,,,,,0,,,,,0,1925
BRHM,9/1/05,67.2293055,117.2938003,0,567.2,2880,28.83062501,56.28984399,0,287.1,2880,7.925138885,14.52237401,0,65.5,2880,,,,,0,,,,,0,,,,,0,1045
BRHM,10/1/05,303.1058803,303.2698972,0,1120.5,2976,148.6568214,148.49047,0,538.2,2976,37.72597446,39.86653606,0,218.9,2976,,,,,0,,,,,0,,,,,0,116
BRHM,11/1/05,576.6110409,391.3152612,22.3,1692.6,2880,277.3610416,189.2503345,8.8,832,2880,60.19618052,41.0869618,1.6,185.4,2880,,,,,0,,,,,0,,,,,0,0
BRHM,12/1/05,662.9790653,409.8902315,69.9,1723.6,2976,310.2870634,197.6348064,23.1,822,2976,65.6090726,41.6462144,4.3,180.7,2976,,,,,0,,,,,0,,,,,0,0
BRHM,1/1/06,669.8046447,422.6838586,85,1643.8,1098,316.6788712,204.1531906,22.4,800,1098,67.65300541,42.89645593,4.2,165.8,1098,,,,,0,,,,,0,,,,,0,0
BRHM,5/1/06,0,0,0,0,286,0,0,0,0,286,0,0,0,0,286,,,,,0,,,,,0,,,,,0,286
BRHM,6/1/06,3.52E-05,0.001877458,0,0.1,2837,0.001057455,0.011527052,0,0.2,2837,0,0,0,0,2837,,,,,0,,,,,0,,,,,0,2353
BRHM,7/1/06,0,0,0,0,2976,0.004200269,0.032267249,0,0.6,2976,0.000504032,0.008386543,0,0.3,2976,,,,,0,,,,,0,,,,,0,2053
BRHM,8/1/06,2.56797715,8.014090912,0,56.3,2976,1.230779571,3.673207134,0,24.8,2976,0.808971774,2.830890255,0,26.1,2976,,,,,0,,,,,0,,,,,0,1610
BRHM,9/1/06,56.13135417,92.77128026,0,567.9,2880,23.93465277,42.50217786,0,282.6,2880,15.20142358,31.21227776,0,223.5,2880,,,,,0,,,,,0,,,,,0,1309
BRHM,10/1/06,294.2704301,293.3842321,0,1124.9,2976,139.6802083,140.8566346,0,531.7,2976,82.53975134,83.25667395,0,321.6,2976,,,,,0,,,,,0,,,,,0,267
BRHM,11/1/06,581.4448262,387.9464391,22,1433.9,2880,272.1792011,184.1542018,6.1,672.7,2880,100.6304515,77.57127793,2.2,373.9,2880,,,,,0,,,,,0,,,,,0,63
BRHM,12/1/06,711.1523515,426.1080307,98.5,1694.1,2976,334.8677871,205.2173232,23.3,824,2974,72.01680677,44.05384831,4.6,180.6,2975,,,,,0,,,,,0,,,,,0,2
BRHM,1/1/07,660.9763812,414.5490592,58.6,1683.7,1791,311.8029593,199.1264801,21.9,839,1791,64.30854267,41.35117356,4.2,169.9,1791,,,,,0,,,,,0,,,,,0,0
BRHM,9/1/07,76.6476932,111.6701474,0,517.1,1929,33.78055991,53.96782271,0,256.6,1929,10.34883358,15.73143966,0,76.7,1929,,,,,0,,,,,0,,,,,0,691
BRHM,10/1/07,270.0278557,276.939977,0,1065.8,2976,130.8858871,134.7503573,0,499,2976,65.52170704,94.73226416,0,403.5,2976,,,,,0,,,,,0,,,,,0,492
BRHM,11/1/07,572.3730905,391.569889,33.3,1537.4,2880,267.6710763,185.5944464,9.4,737,2880,111.4215625,85.91049469,5.8,430.2,2880,,,,,0,,,,,0,,,,,0,0
BRHM,12/1/07,689.5502686,415.9315352,44.4,1701.5,2976,325.9337701,199.0680156,18.2,825,2976,72.79808468,45.7235976,3.5,217.3,2976,,,,,0,,,,,0,,,,,0,0
BRHM,1/1/08,604.1155394,387.7150806,66.7,1637.9,2973,301.0879921,201.8409239,18.8,794,2973,70.33409553,50.63529415,3.1,294.9,2974,,,,,0,,,,,0,,,,,0,8
BRHM,2/1/08,349.9390089,310.2149727,0,1323.1,2784,183.8906248,167.9417009,0.1,713,2784,38.83599142,36.47129234,0,212.8,2784,,,,,0,,,,,0,,,,,0,2
BRHM,3/1/08,109.4643819,152.3943282,0,714.3,2976,57.68047713,85.53812222,0,415.6,2976,20.92177422,33.9342775,0,199.9,2976,,,,,0,,,,,0,,,,,0,745
BRHM,4/1/08,10.37187499,23.03363969,0,174.5,2880,4.422187501,10.33278626,0,109.3,2880,1.155243054,2.628084665,0,28.4,2880,,,,,0,,,,,0,,,,,0,1278
BRHM,5/1/08,0.036995968,0.233610138,0,3.1,2976,0.027083334,0.141679108,0,1.7,2976,0.003931452,0.031882147,0,0.4,2976,,,,,0,,,,,0,,,,,0,2144
BRHM,6/1/08,0.001041667,0.018793729,0,0.6,2880,0.001944444,0.015694097,0,0.2,2880,0,0,0,0,2880,,,,,0,,,,,0,,,,,0,2432
BRHM,7/1/08,0.001344086,0.027406824,0,0.7,2976,0.004502688,0.025001943,0,0.3,2976,6.72E-05,0.002591944,0,0.1,2976,,,,,0,,,,,0,,,,,0,2537
BRHM,8/1/08,3.092607518,9.543255889,0,65,2976,1.501444891,4.327999267,0,39.1,2976,0.404637096,1.16607162,0,9.5,2976,,,,,0,,,,,0,,,,,0,1317
BRHM,9/1/08,62.05402774,102.9519721,0,611.9,2880,30.78798611,56.46656574,0,353.5,2880,6.432465275,11.46970933,0,67.9,2880,,,,,0,,,,,0,,,,,0,957
BRHM,10/1/08,272.2062162,274.8939526,0,1175.7,2976,145.0312503,150.210907,0,628.4,2976,36.49536291,38.48249749,0,222.2,2976,,,,,0,,,,,0,,,,,0,115
BRHM,11/1/08,579.6769448,386.2150323,14.4,1564.8,2880,302.5262496,206.5433047,4.4,830,2880,58.26718746,39.59613468,1,158.4,2880,,,,,0,,,,,0,,,,,0,0
BRHM,12/1/08,737.1204638,425.4276095,65.2,1747.6,2976,378.3393146,224.5701958,17.4,932,2976,73.19828628,42.53131108,3,175.2,2976,,,,,0,,,,,0,,,,,0,1
BRHM,1/1/09,586.3182455,389.4780825,29.7,1924.5,2976,296.131183,205.4699296,12.8,1019,2976,57.40430104,39.04172945,2.5,194.2,2976,,,,,0,,,,,0,,,,,0,1
BRHM,2/1/09,355.0589287,312.6902585,0.8,1284.2,2688,185.8272322,168.7023789,0.2,701,2688,63.03229163,74.74414443,0,367.5,2688,,,,,0,,,,,0,,,,,0,41
BRHM,3/1/09,121.5746304,170.7417259,0,770.5,2976,66.69509415,100.6759098,0,443.6,2976,17.38104838,25.82284254,0,113.7,2976,,,,,0,,,,,0,,,,,0,791
BRHM,4/1/09,9.820173608,23.02667145,0,170,2880,4.273888889,10.68135134,0,97.7,2880,1.732951395,4.113431746,0,45.9,2880,,,,,0,,,,,0,,,,,0,1402
BRHM,5/1/09,0.040893818,0.256880593,0,3.2,2976,0.022076613,0.139650905,0,1.8,2976,0.013508065,0.103057423,0,1.4,2976,,,,,0,,,,,0,,,,,0,1838
BRHM,6/1/09,0.003194445,0.034919703,0,0.7,2880,0.003958333,0.023388492,0,0.2,2880,0,0,0,0,2880,,,,,0,,,,,0,,,,,0,2230
BRHM,7/1/09,0.005409946,0.054581371,0,0.8,2976,0.005409946,0.028420019,0,0.3,2976,6.72E-05,0.002591944,0,0.1,2976,,,,,0,,,,,0,,,,,0,2647
BRHM,8/1/09,3.082157269,9.384485406,0,62.9,2976,1.41673387,3.917870565,0,35.7,2976,0.414650539,1.128288844,0,9.6,2976,,,,,0,,,,,0,,,,,0,1826
BRHM,9/1/09,65.08135414,110.3264834,0,628.2,2880,32.47166659,62.57308156,0,367.9,2880,8.25822917,15.41805763,0,80.4,2880,,,,,0,,,,,0,,,,,0,963
BRHM,10/1/09,281.1480847,281.2239331,0,1080.2,2976,152.9082324,155.241285,0,594.8,2976,43.16696906,42.72589351,0,170.2,2976,,,,,0,,,,,0,,,,,0,167
BRHM,11/1/09,559.3263899,392.7535212,20,1798.3,2880,281.5404514,203.8402191,7.3,934,2880,90.16815974,77.16422695,1.8,682.3,2880,,,,,0,,,,,0,,,,,0,86
BRHM,12/1/09,686.7842642,425.4354547,78.4,1828.7,2974,339.0770343,216.3849183,25.7,949,2974,67.94764631,43.26165643,4.6,190.5,2974,,,,,0,,,,,0,,,,,0,3
BRHM,1/1/10,584.7993289,393.773277,36.9,1626.3,2976,283.4788979,197.5596691,12.2,831,2976,56.25561156,39.29095823,2,158.7,2976,,,,,0,,,,,0,,,,,0,0
BRHM,2/1/10,346.5254092,315.5732182,0,1144.7,2688,170.040997,158.8280973,0.2,563.1,2688,62.94906996,67.85597212,0.2,355.4,2688,,,,,0,,,,,0,,,,,0,155